Project,Study,Ord_Occ,Event_Num,Cast_ID,Date_Time_UTC,Date_Time_PST,Lat_Dec,Lon_Dec,Sta_ID,Line,Sta,Depth,Pressure,PrQ,Temp1,Temp1Q,Temp2,Temp2Q,TempAve,Salt1,Salt1Q,Salt1_Corr,Salt2,Salt2Q,Salt2_Corr,SaltAve_Corr,Ox1,Ox1Q,Ox1_CruiseCorr,Ox1_StaCorr,Ox2,Ox2Q,Ox2_CruiseCorr,Ox2_StaCorr,OxAve_StaCorr,Ox1uM,Ox1uM_CruiseCorr,Ox1uM_StaCorr,Ox2uM,Ox2uM_CruiseCorr,Ox2uM_StaCorr,OxAveuM_StaCorr,FluorV,FluorQ,EstChl_CruiseCorr,EstChl_StaCorr,ISUSV,ISUSQ,EstNO3_CruiseCorr,EstNO3_StaCorr,SigThetaTS1,SigThetaTS1Q,SigThetaTS2,SigThetaTS2Q,BAT,XMiss,TransQ,pH,pHQ,SPAR,SPARQ,PAR,PARQ,PoT1,PoT2,DynHt,SVA,OxSat1,OxSat2,BTL_Depth,BTL_Temp,SaltB,OxB,OxBuM,Chl-a,Phaeo,NO3,NO2,NH4,PO4,SIL
CalCOFI,2007SR,057,59,2007_057d,24-Jul-2020 05:22:55,23-Jul-2020 21:22:55,33.81483,-121.84344,080.0 070.0,080.0,070.0,3.000,3.021,,16.1102,,16.1101,,16.1102,33.2715,,33.2717,33.2721,,33.2737,33.2727,5.6608,,5.8973,5.8637,4.4822,,6.7592,4.8677,5.3657,246.793,257.1391,200.8279,195.407,438.0756,173.6821,187.2550,0.1261,,1.0590,0.3668,-99.0,,-99.0,-99.0,24.3935,,24.3940,,0.7450,83.0074,,8.138,,1.9043E+00,,4.1341E-01,,16.1097,16.1097,0.0054,,100.575,79.634,3,16.109,33.2648,5.931,258.98,0.269,0.070,1.22,0.034,0.13,0.37,1.27
CalCOFI,2007SR,057,59,2007_057d,24-Jul-2020 05:23:02,23-Jul-2020 21:23:02,33.81482,-121.84344,080.0 070.0,080.0,070.0,4.000,4.029,,16.1113,,16.1110,,16.1112,33.2715,,33.2717,33.2721,,33.2737,33.2727,5.6604,,5.8969,5.8633,4.4815,,6.7575,4.8661,5.3647,246.776,257.1214,200.8160,195.378,438.0341,173.6313,187.2237,0.1332,,1.1427,0.3792,-99.0,,-99.0,-99.0,24.3933,,24.3938,,0.7460,82.9857,,8.138,,1.9043E+00,,3.5926E-01,,16.1107,16.1104,0.0108,,100.570,79.624,,,,,,,,,,,,
CalCOFI,2007SR,057,59,2007_057d,24-Jul-2020 05:23:05,23-Jul-2020 21:23:05,33.81482,-121.84344,080.0 070.0,080.0,070.0,5.000,5.036,,16.1111,,16.1116,,16.1114,33.2716,,33.2718,33.2721,,33.2737,33.2728,5.6600,,5.8964,5.8629,4.4848,,6.7654,4.8735,5.3682,246.755,257.0994,200.8013,195.521,437.9827,173.8818,187.3416,0.1209,,0.9976,0.3566,-99.0,,-99.0,-99.0,24.3935,,24.3937,,0.7441,83.0248,,8.138,,1.9043E+00,,3.1955E-01,,16.1103,16.1108,0.0145,,100.561,79.683,,,,,,,,,,,,
CalCOFI,2007SR,057,59,2007_057d,24-Jul-2020 05:23:07,23-Jul-2020 21:23:07,33.81482,-121.84344,080.0 070.0,080.0,070.0,6.000,6.043,,16.1103,,16.1105,,16.1104,33.2716,,33.2718,33.2721,,33.2737,33.2728,5.6527,,5.8888,5.8553,4.4847,,6.7651,4.8733,5.3643,246.438,256.7685,200.5792,195.516,437.2074,173.8730,187.2261,0.1552,,1.4024,0.4056,-99.0,,-99.0,-99.0,24.3937,,24.3940,,0.7435,83.0371,,8.138,,1.9043E+00,,3.0933E-01,,16.1093,16.1096,0.0180,,100.431,79.679,,,,,,,,,,,,
CalCOFI,2007SR,057,59,2007_057d,24-Jul-2020 05:23:09,23-Jul-2020 21:23:09,33.81482,-121.84344,080.0 070.0,080.0,070.0,7.000,7.050,,16.1113,,16.1112,,16.1113,33.2717,,33.2719,33.2722,,33.2738,33.2729,5.6630,,5.8996,5.8660,4.4849,,6.7656,4.8737,5.3699,246.888,257.2383,200.8945,195.528,438.3080,173.8941,187.3943,0.1154,,0.9328,0.3448,-99.0,,-99.0,-99.0,24.3935,,24.3940,,0.7476,82.9521,,8.138,,1.9043E+00,,2.7991E-01,,16.1102,16.1101,0.0216,,100.616,79.685,,,,,,,,,,,,
CalCOFI,2007SR,057,59,2007_057d,24-Jul-2020 05:23:11,23-Jul-2020 21:23:11,33.81482,-121.84344,080.0 070.0,080.0,070.0,8.000,8.058,,16.1132,,16.1132,,16.1132,33.2717,,33.2719,33.2722,,33.2738,33.2729,5.6596,,5.8960,5.8625,4.4853,,6.7666,4.8746,5.3686,246.738,257.0817,200.7894,195.545,437.9411,173.9238,187.3566,0.1170,,0.9517,0.3483,-99.0,,-99.0,-99.0,24.3931,,24.3935,,0.7456,82.9934,,8.138,,1.9043E+00,,2.7025E-01,,16.1119,16.1119,0.0251,,100.559,79.695,,,,,,,,,,,,
CalCOFI,2007SR,057,59,2007_057d,24-Jul-2020 05:23:13,23-Jul-2020 21:23:13,33.81482,-121.84344,080.0 070.0,080.0,070.0,9.000,9.065,,16.1123,,16.1125,,16.1124,33.2717,,33.2719,33.2722,,33.2738,33.2729,5.6618,,5.8983,5.8647,4.4860,,6.7682,4.8762,5.3705,246.834,257.1819,200.8567,195.573,438.1759,173.9729,187.4148,0.1164,,0.9446,0.3470,-99.0,,-99.0,-99.0,24.3934,,24.3937,,0.7457,82.9914,,8.138,,1.9043E+00,,2.5872E-01,,16.1109,16.1110,0.0287,,100.596,79.705,,,,,,,,,,,,
CalCOFI,2007SR,057,59,2007_057d,24-Jul-2020 05:23:15,23-Jul-2020 21:23:15,33.81482,-121.84344,080.0 070.0,080.0,070.0,10.000,10.072,,16.1121,,16.1121,,16.1121,33.2717,,33.2719,33.2722,,33.2738,33.2729,5.6653,,5.9020,5.8684,4.4866,,6.7697,4.8776,5.3730,246.988,257.3427,200.9646,195.599,438.5526,174.0184,187.4915,0.1167,,0.9481,0.3477,-99.0,,-99.0,-99.0,24.3935,,24.3939,,0.7483,82.9376,,8.138,,1.9043E+00,,2.4263E-01,,16.1105,16.1105,0.0322,,100.659,79.715,10,16.103,33.2635,, ,,,,,,,
CalCOFI,2007SR,057,59,2007_057d,24-Jul-2020 05:23:17,23-Jul-2020 21:23:17,33.81482,-121.84344,080.0 070.0,080.0,070.0,11.000,11.079,,16.1125,,16.1123,,16.1124,33.2716,,33.2718,33.2722,,33.2738,33.2728,5.6627,,5.8993,5.8657,4.4871,,6.7709,4.8787,5.3722,246.874,257.2237,200.8847,195.622,438.2738,174.0587,187.4717,0.1172,,0.9540,0.3488,-99.0,,-99.0,-99.0,24.3934,,24.3938,,0.7438,83.0310,,8.138,,1.9043E+00,,2.3596E-01,,16.1107,16.1106,0.0358,,100.613,79.725,11,16.109,33.2771,5.920,258.51,0.355,0.089,1.20,0.032,0.18,0.36,1.16
CalCOFI,2007SR,057,59,2007_057d,24-Jul-2020 05:23:19,23-Jul-2020 21:23:19,33.81482,-121.84344,080.0 070.0,080.0,070.0,12.000,12.086,,16.1130,,16.1129,,16.1130,33.2717,,33.2719,33.2721,,33.2737,33.2728,5.6558,,5.8920,5.8585,4.4867,,6.7699,4.8778,5.3682,246.575,256.9115,200.6752,195.603,437.5424,174.0255,187.3504,0.1154,,0.9328,0.3448,-99.0,,-99.0,-99.0,24.3933,,24.3937,,0.7462,82.9805,,8.138,,1.9043E+00,,2.2616E-01,,16.1111,16.1110,0.0393,,100.492,79.718,,,,,,,,,,,,
CalCOFI,2007SR,057,59,2007_057d,24-Jul-2020 05:23:21,23-Jul-2020 21:23:21,33.81482,-121.84344,080.0 070.0,080.0,070.0,13.000,13.094,,16.1133,,16.1135,,16.1134,33.2714,,33.2716,33.2720,,33.2736,33.2726,5.6620,,5.8985,5.8650,4.4881,,6.7732,4.8809,5.3730,246.842,257.1903,200.8623,195.665,438.1955,174.1341,187.4982,0.1203,,0.9906,0.3554,-99.0,,-99.0,-99.0,24.3931,,24.3935,,0.7481,82.9413,,8.138,,1.9043E+00,,2.1695E-01,,16.1113,16.1115,0.0429,,100.601,79.744,,,,,,,,,,,,
CalCOFI,2007SR,057,59,2007_057d,24-Jul-2020 05:23:23,23-Jul-2020 21:23:23,33.81482,-121.84344,080.0 070.0,080.0,070.0,14.000,14.101,,16.1133,,16.1134,,16.1134,33.2715,,33.2717,33.2720,,33.2736,33.2727,5.6593,,5.8957,5.8622,4.4846,,6.7649,4.8731,5.3677,246.728,257.0713,200.7824,195.515,437.9167,173.8713,187.3269,0.1173,,0.9552,0.3490,-99.0,,-99.0,-99.0,24.3932,,24.3936,,0.7450,83.0058,,8.138,,1.9043E+00,,2.1277E-01,,16.1111,16.1112,0.0464,,100.555,79.683,,,,,,,,,,,,
CalCOFI,2007SR,057,59,2007_057d,24-Jul-2020 05:23:26,23-Jul-2020 21:23:26,33.81482,-121.84346,080.0 070.0,080.0,070.0,15.000,15.108,,16.1133,,16.1134,,16.1134,33.2715,,33.2717,33.2721,,33.2737,33.2727,5.6625,,5.8990,5.8655,4.4852,,6.7663,4.8744,5.3700,246.865,257.2143,200.8784,195.539,438.2517,173.9133,187.3959,0.1183,,0.9670,0.3512,-99.0,,-99.0,-99.0,24.3932,,24.3937,,0.7461,82.9842,,8.138,,1.9043E+00,,1.9856E-01,,16.1110,16.1111,0.0500,,100.611,79.693,,,,,,,,,,,,
CalCOFI,2007SR,057,59,2007_057d,24-Jul-2020 05:23:27,23-Jul-2020 21:23:27,33.81482,-121.84344,080.0 070.0,080.0,070.0,16.000,16.115,,16.1132,,16.1133,,16.1133,33.2716,,33.2718,33.2720,,33.2736,33.2727,5.6591,,5.8955,5.8619,4.4858,,6.7678,4.8758,5.3689,246.715,257.0577,200.7733,195.564,437.8849,173.9571,187.3652,0.1144,,0.9210,0.3425,-99.0,,-99.0,-99.0,24.3934,,24.3937,,0.7456,82.9942,,8.138,,1.9043E+00,,1.8671E-01,,16.1106,16.1107,0.0536,,100.549,79.703,,,,,,,,,,,,
CalCOFI,2007SR,057,59,2007_057d,24-Jul-2020 05:23:29,23-Jul-2020 21:23:29,33.81483,-121.84344,080.0 070.0,080.0,070.0,17.000,17.123,,16.1133,,16.1133,,16.1133,33.2716,,33.2718,33.2721,,33.2737,33.2728,5.6628,,5.8994,5.8658,4.4863,,6.7689,4.8769,5.3714,246.879,257.2289,200.8882,195.588,438.2860,173.9992,187.4437,0.1244,,1.0389,0.3636,-99.0,,-99.0,-99.0,24.3934,,24.3938,,0.7470,82.9654,,8.138,,1.9043E+00,,1.7663E-01,,16.1106,16.1107,0.0571,,100.616,79.713,,,,,,,,,,,,
CalCOFI,2007SR,057,59,2007_057d,24-Jul-2020 05:23:31,23-Jul-2020 21:23:31,33.81484,-121.84344,080.0 070.0,080.0,070.0,18.000,18.130,,16.1131,,16.1131,,16.1131,33.2716,,33.2718,33.2722,,33.2738,33.2728,5.6717,,5.9087,5.8750,4.4892,,6.7759,4.8834,5.3792,247.265,257.6318,201.1586,195.712,439.2301,174.2164,187.6875,0.1167,,0.9481,0.3477,-99.0,,-99.0,-99.0,24.3935,,24.3939,,0.7446,83.0153,,8.138,,1.9043E+00,,1.7648E-01,,16.1102,16.1103,0.0607,,100.773,79.763,,,,,,,,,,,,
CalCOFI,2007SR,057,59,2007_057d,24-Jul-2020 05:23:33,23-Jul-2020 21:23:33,33.81483,-121.84345,080.0 070.0,080.0,070.0,19.000,19.137,,16.1132,,16.1135,,16.1134,33.2716,,33.2718,33.2721,,33.2737,33.2728,5.6368,,5.8722,5.8388,4.4878,,6.7725,4.8803,5.3596,245.746,256.0461,200.0945,195.651,435.5148,174.1096,187.1021,0.1176,,0.9587,0.3496,-99.0,,-99.0,-99.0,24.3935,,24.3938,,0.7637,82.6203,,8.138,,1.9043E+00,,1.6678E-01,,16.1102,16.1105,0.0642,,100.154,79.739,,,,,,,,,,,,
CalCOFI,2007SR,057,59,2007_057d,24-Jul-2020 05:23:36,23-Jul-2020 21:23:36,33.81483,-121.84346,080.0 070.0,080.0,070.0,20.000,20.144,,16.1127,,16.1133,,16.1130,33.2713,,33.2715,33.2720,,33.2736,33.2726,5.6455,,5.8813,5.8478,4.4966,,6.7935,4.9000,5.3739,246.124,256.4407,200.3593,196.037,436.4394,174.7858,187.5726,0.1233,,1.0259,0.3615,-99.0,,-99.0,-99.0,24.3934,,24.3938,,0.7465,82.9744,,8.138,,1.9043E+00,,1.5674E-01,,16.1096,16.1102,0.0678,,100.308,79.896,,,,,,,,,,,,
CalCOFI,2007SR,057,59,2007_057d,24-Jul-2020 05:23:37,23-Jul-2020 21:23:37,33.81484,-121.84346,080.0 070.0,080.0,070.0,21.000,21.152,,15.9075,,15.9248,,15.9162,33.2330,,33.2332,33.2325,,33.2341,33.2337,5.7324,,5.9721,5.9381,4.5266,,6.8652,4.9675,5.4528,249.908,260.3909,203.0102,197.342,445.6945,177.0721,190.0412,0.1159,,0.9387,0.3459,-99.0,,-99.0,-99.0,24.4103,,24.4060,,0.7444,83.0196,,8.139,,1.9043E+00,,1.4426E-01,,15.9042,15.9215,0.0713,,101.417,80.112,,,,,,,,,,,,
CalCOFI,2007SR,057,59,2007_057d,24-Jul-2020 05:23:39,23-Jul-2020 21:23:39,33.81484,-121.84345,080.0 070.0,080.0,070.0,22.000,22.159,,15.7122,,15.7229,,15.7176,33.2142,,33.2144,33.2126,,33.2142,33.2143,5.7612,,6.0022,5.9680,4.5372,,6.8905,4.9913,5.4797,251.159,261.6968,203.8866,197.798,448.7543,177.8710,190.8788,0.1180,,0.9634,0.3505,-99.0,,-99.0,-99.0,24.4396,,24.4360,,0.7434,83.0390,,8.141,,1.9043E+00,,1.4521E-01,,15.7088,15.7195,0.0749,,101.526,79.972,,,,,,,,,,,,
CalCOFI,2007SR,057,59,2007_057d,24-Jul-2020 05:23:41,23-Jul-2020 21:23:41,33.81484,-121.84345,080.0 070.0,080.0,070.0,23.000,23.166,,15.5431,,15.4838,,15.5135,33.2001,,33.2003,33.2101,,33.2117,33.2060,5.7208,,5.9600,5.9260,4.5731,,6.9762,5.0720,5.4990,249.390,259.8501,202.6473,199.354,444.4275,180.5970,191.6222,0.1353,,1.1675,0.3825,-99.0,,-99.0,-99.0,24.4663,,24.4870,,0.7536,82.8277,,8.145,,1.9043E+00,,1.3802E-01,,15.5396,15.4803,0.0784,,100.469,80.223,,,,,,,,,,,,
CalCOFI,2007SR,057,59,2007_057d,24-Jul-2020 05:23:44,23-Jul-2020 21:23:44,33.81484,-121.84346,080.0 070.0,080.0,070.0,24.000,24.173,,14.8103,,14.8854,,14.8479,33.0795,,33.0797,33.0839,,33.0855,33.0826,5.9002,,6.1474,6.1124,4.6391,,7.1337,5.2203,5.6664,257.194,267.9967,208.1146,202.226,463.5150,185.6286,196.8716,0.1554,,1.4048,0.4058,-99.0,,-99.0,-99.0,24.5325,,24.5198,,0.7729,82.4289,,8.145,,1.9043E+00,,1.2927E-01,,14.8068,14.8818,0.0818,,102.040,80.352,,,,,,,,,,,,
CalCOFI,2007SR,057,59,2007_057d,24-Jul-2020 05:23:46,23-Jul-2020 21:23:46,33.81484,-121.84346,080.0 070.0,080.0,070.0,25.000,25.181,,14.4507,,14.4640,,14.4574,33.1111,,33.1113,33.1074,,33.1090,33.1102,5.9365,,6.1853,6.1501,4.6759,,7.2216,5.3031,5.7266,258.752,269.6231,209.2061,203.806,467.3257,188.3967,198.8014,0.1506,,1.3481,0.4016,-99.0,,-99.0,-99.0,24.6342,,24.6286,,0.7516,82.8704,,8.145,,1.9043E+00,,1.2839E-01,,14.4471,14.4604,0.0852,,101.954,80.323,25,14.882,33.1449,6.049,264.17,0.316,0.093,1.15,0.033,0.27,0.39,1.35
CalCOFI,2007SR,057,59,2007_057d,24-Jul-2020 05:23:47,23-Jul-2020 21:23:47,33.81484,-121.84346,080.0 070.0,080.0,070.0,26.000,26.188,,14.4455,,14.4491,,14.4473,33.1258,,33.1260,33.1265,,33.1281,33.1271,5.9401,,6.1891,6.1538,4.6727,,7.2139,5.2959,5.7249,258.901,269.7787,209.3105,203.662,467.6901,188.1444,198.7275,0.1336,,1.1474,0.3798,-99.0,,-99.0,-99.0,24.6467,,24.6465,,0.7409,83.0921,,8.142,,1.9043E+00,,1.2755E-01,,14.4417,14.4454,0.0885,,102.012,80.253,,,,,,,,,,,,
CalCOFI,2007SR,057,59,2007_057d,24-Jul-2020 05:23:49,23-Jul-2020 21:23:49,33.81484,-121.84346,080.0 070.0,080.0,070.0,27.000,27.195,,14.4249,,14.4437,,14.4343,33.1320,,33.1322,33.1318,,33.1334,33.1328,5.9293,,6.1778,6.1426,4.6780,,7.2266,5.3078,5.7252,258.432,269.2891,208.9819,203.893,466.5430,188.5491,198.7655,0.1190,,0.9752,0.3527,-99.0,,-99.0,-99.0,24.6558,,24.6517,,0.7327,83.2632,,8.140,,1.9043E+00,,1.2256E-01,,14.4210,14.4398,0.0918,,101.790,80.338,,,,,,,,,,,,
CalCOFI,2007SR,057,59,2007_057d,24-Jul-2020 05:23:52,23-Jul-2020 21:23:52,33.81484,-121.84346,080.0 070.0,080.0,070.0,28.000,28.203,,14.4208,,14.4192,,14.4200,33.1337,,33.1339,33.1348,,33.1364,33.1352,5.9102,,6.1579,6.1228,4.6903,,7.2560,5.3354,5.7291,257.599,268.4195,208.3983,204.426,464.5056,189.4829,198.9406,0.1311,,1.1179,0.3757,-99.0,,-99.0,-99.0,24.6581,,24.6592,,0.7269,83.3823,,8.136,,1.9043E+00,,1.0601E-01,,14.4167,14.4152,0.0951,,101.454,80.510,,,,,,,,,,,,
CalCOFI,2007SR,057,59,2007_057d,24-Jul-2020 05:23:54,23-Jul-2020 21:23:54,33.81484,-121.84346,080.0 070.0,080.0,070.0,29.000,29.210,,14.3418,,14.3470,,14.3444,33.1387,,33.1389,33.1396,,33.1412,33.1401,5.9458,,6.1951,6.1598,4.7000,,7.2791,5.3572,5.7585,259.145,270.0334,209.4814,204.848,468.2869,190.2222,199.8518,0.1138,,0.9139,0.3411,-99.0,,-99.0,-99.0,24.6786,,24.6781,,0.7214,83.4976,,8.136,,1.9043E+00,,9.2926E-02,,14.3376,14.3428,0.0984,,101.906,80.563,,,,,,,,,,,,
CalCOFI,2007SR,057,59,2007_057d,24-Jul-2020 05:23:55,23-Jul-2020 21:23:55,33.81484,-121.84346,080.0 070.0,080.0,070.0,30.000,30.217,,14.3166,,14.3191,,14.3179,33.1452,,33.1454,33.1461,,33.1477,33.1466,5.9510,,6.2005,6.1652,4.7028,,7.2858,5.3635,5.7644,259.369,270.2672,209.6383,204.967,468.8347,190.4307,200.0345,0.1108,,0.8786,0.3340,-99.0,,-99.0,-99.0,24.6889,,24.6890,,0.7166,83.5970,,8.136,,1.9043E+00,,8.3649E-02,,14.3122,14.3148,0.1017,,101.947,80.569,,,,,,,,,,,,
CalCOFI,2007SR,057,59,2007_057d,24-Jul-2020 05:23:57,23-Jul-2020 21:23:57,33.81484,-121.84346,080.0 070.0,080.0,070.0,31.000,31.225,,14.2960,,14.3004,,14.2982,33.1484,,33.1486,33.1490,,33.1506,33.1496,5.9317,,6.1803,6.1451,4.7075,,7.2970,5.3741,5.7596,258.524,269.3851,209.0463,205.171,466.7680,190.7881,199.9172,0.1223,,1.0141,0.3595,-99.0,,-99.0,-99.0,24.6957,,24.6953,,0.7244,83.4342,,8.136,,1.9043E+00,,5.4792E-02,,14.2915,14.2959,0.1050,,101.575,80.620,,,,,,,,,,,,
CalCOFI,2007SR,057,59,2007_057d,24-Jul-2020 05:24:00,23-Jul-2020 21:24:00,33.81484,-121.84346,080.0 070.0,080.0,070.0,32.000,32.232,,14.1939,,14.2079,,14.2009,33.1383,,33.1385,33.1429,,33.1445,33.1415,5.9440,,6.1932,6.1579,4.7308,,7.3526,5.4264,5.7922,259.058,269.9425,209.4205,206.182,468.0741,192.5593,200.9899,0.1316,,1.1238,0.3766,-99.0,,-99.0,-99.0,24.7093,,24.7099,,0.7331,83.2544,,8.137,,1.9043E+00,,1.7482E-02,,14.1893,14.2033,0.1082,,101.571,80.864,,,,,,,,,,,,
CalCOFI,2007SR,057,59,2007_057d,24-Jul-2020 05:24:01,23-Jul-2020 21:24:01,33.81484,-121.84346,080.0 070.0,080.0,070.0,33.000,33.239,,13.9806,,14.0033,,13.9920,33.1199,,33.1201,33.1208,,33.1224,33.1213,5.9169,,6.1649,6.1297,4.7577,,7.4169,5.4869,5.8083,257.870,268.7024,208.5882,207.351,465.1684,194.6074,201.5978,0.1404,,1.2277,0.3898,-99.0,,-99.0,-99.0,24.7394,,24.7355,,0.7376,83.1601,,8.138,,1.9043E+00,,3.3769E-03,,13.9759,13.9986,0.1115,,100.660,80.977,,,,,,,,,,,,
CalCOFI,2007SR,057,59,2007_057d,24-Jul-2020 05:24:03,23-Jul-2020 21:24:03,33.81484,-121.84346,080.0 070.0,080.0,070.0,34.000,34.247,,13.8243,,13.8382,,13.8313,33.0997,,33.0999,33.0987,,33.1003,33.1001,5.9119,,6.1596,6.1246,4.7825,,7.4761,5.5427,5.8337,257.646,268.4686,208.4312,208.427,464.6205,196.4925,202.4619,0.1427,,1.2548,0.3928,-99.0,,-99.0,-99.0,24.7560,,24.7524,,0.7353,83.2077,,8.138,,1.9043E+00,,6.6250E-05,,13.8195,13.8334,0.1147,,100.242,81.115,,,,,,,,,,,,
CalCOFI,2007SR,057,59,2007_057d,24-Jul-2020 05:24:05,23-Jul-2020 21:24:05,33.81484,-121.84346,080.0 070.0,080.0,070.0,35.000,35.254,,13.5287,,13.5577,,13.5432,33.0624,,33.0626,33.0653,,33.0669,33.0648,5.9780,,6.2287,6.1932,4.8155,,7.5548,5.6168,5.9050,260.522,271.4708,210.4461,209.859,471.6548,199.0013,204.7237,0.1514,,1.3575,0.4023,-99.0,,-99.0,-99.0,24.7874,,24.7838,,0.7383,83.1452,,8.137,,1.9043E+00,,1.0000E-12,,13.5239,13.5528,0.1179,,100.731,81.192,,,,,,,,,,,,
CalCOFI,2007SR,057,59,2007_057d,24-Jul-2020 05:24:07,23-Jul-2020 21:24:07,33.81484,-121.84346,080.0 070.0,080.0,070.0,36.000,36.261,,13.2260,,13.2432,,13.2346,33.0201,,33.0203,33.0251,,33.0267,33.0235,5.9903,,6.2416,6.2060,4.8426,,7.6195,5.6777,5.9419,261.048,272.0199,210.8146,211.034,472.9413,201.0598,205.9372,0.1541,,1.3894,0.4047,-99.0,,-99.0,-99.0,24.8155,,24.8160,,0.7365,83.1827,,8.137,,1.9043E+00,,1.0000E-12,,13.2210,13.2383,0.1211,,100.286,81.103,,,,,,,,,,,,
CalCOFI,2007SR,057,59,2007_057d,24-Jul-2020 05:24:10,23-Jul-2020 21:24:10,33.81484,-121.84346,080.0 070.0,080.0,070.0,37.000,37.269,,13.2292,,13.2395,,13.2344,33.0556,,33.0558,33.0547,,33.0563,33.0561,5.9649,,6.2150,6.1796,4.8405,,7.6145,5.6730,5.9263,259.934,270.8570,210.0341,210.937,470.2167,200.8899,205.4620,0.1596,,1.4544,0.4088,-99.0,,-99.0,-99.0,24.8424,,24.8396,,0.7359,83.1960,,8.133,,1.9043E+00,,1.0000E-12,,13.2241,13.2345,0.1242,,99.889,81.077,,,,,,,,,,,,
CalCOFI,2007SR,057,59,2007_057d,24-Jul-2020 05:24:12,23-Jul-2020 21:24:12,33.81484,-121.84346,080.0 070.0,080.0,070.0,38.000,38.276,,13.1724,,13.1768,,13.1746,33.0648,,33.0650,33.0640,,33.0656,33.0653,5.9123,,6.1601,6.1250,4.8409,,7.6155,5.6739,5.8995,257.638,268.4602,208.4256,210.952,464.6010,200.9162,204.6709,0.1667,,1.5383,0.4124,-99.0,,-99.0,-99.0,24.8609,,24.8594,,0.7385,83.1409,,8.130,,1.9043E+00,,1.0000E-12,,13.1673,13.1717,0.1273,,98.899,80.984,,,,,,,,,,,,
CalCOFI,2007SR,057,59,2007_057d,24-Jul-2020 05:24:13,23-Jul-2020 21:24:13,33.81484,-121.84346,080.0 070.0,080.0,070.0,39.000,39.283,,13.3035,,13.3053,,13.3044,33.1337,,33.1339,33.1388,,33.1404,33.1372,5.8730,,6.1190,6.0841,4.8228,,7.5723,5.6332,5.8587,255.919,266.6657,207.2214,210.154,460.3965,199.5181,203.3698,0.1849,,1.7535,0.4131,-99.0,,-99.0,-99.0,24.8880,,24.8915,,0.7444,83.0183,,8.124,,1.9043E+00,,1.0000E-12,,13.2982,13.2999,0.1304,,98.549,80.931,,,,,,,,,,,,
CalCOFI,2007SR,057,59,2007_057d,24-Jul-2020 05:24:15,23-Jul-2020 21:24:15,33.81484,-121.84346,080.0 070.0,080.0,070.0,40.000,40.291,,13.5032,,13.4995,,13.5014,33.2043,,33.2045,33.2049,,33.2065,33.2055,5.8570,,6.1023,6.0675,4.8020,,7.5226,5.5865,5.8270,255.217,265.9329,206.7296,209.245,458.6795,197.9256,202.3276,0.1927,,1.8458,0.4097,-99.0,,-99.0,-99.0,24.9025,,24.9037,,0.7468,82.9702,,8.118,,1.9043E+00,,1.0000E-12,,13.4976,13.4940,0.1335,,98.727,80.938,40,13.642,33.1202,,270.84,0.435,0.155,2.05,0.045,0.13,0.46,2.05
CalCOFI,2007SR,057,59,2007_057d,24-Jul-2020 05:24:17,23-Jul-2020 21:24:17,33.81484,-121.84346,080.0 070.0,080.0,070.0,41.000,41.298,,13.5280,,13.4981,,13.5131,33.2129,,33.2131,33.2062,,33.2078,33.2105,5.8293,,6.0733,6.0387,4.7967,,7.5100,5.5746,5.8067,254.008,264.6709,205.8826,209.015,455.7225,197.5226,201.7026,0.1930,,1.8493,0.4095,-99.0,,-99.0,-99.0,24.9042,,24.9050,,0.7468,82.9689,,8.115,,1.9043E+00,,1.0000E-12,,13.5223,13.4924,0.1366,,98.315,80.847,,,,,,,,,,,,
CalCOFI,2007SR,057,59,2007_057d,24-Jul-2020 05:24:20,23-Jul-2020 21:24:20,33.81484,-121.84346,080.0 070.0,080.0,070.0,42.000,42.305,,13.5679,,13.5703,,13.5691,33.2301,,33.2303,33.2312,,33.2328,33.2316,5.7922,,6.0346,6.0002,4.7858,,7.4839,5.5501,5.7752,252.391,262.9829,204.7497,208.540,451.7676,196.6904,200.7201,0.1955,,1.8789,0.4079,-99.0,,-99.0,-99.0,24.9094,,24.9098,,0.7483,82.9393,,8.111,,1.9043E+00,,1.0000E-12,,13.5620,13.5644,0.1396,,97.779,80.796,,,,,,,,,,,,
CalCOFI,2007SR,057,59,2007_057d,24-Jul-2020 05:24:21,23-Jul-2020 21:24:21,33.81484,-121.84346,080.0 070.0,080.0,070.0,43.000,43.313,,13.5211,,13.5219,,13.5215,33.2189,,33.2191,33.2194,,33.2210,33.2201,5.8140,,6.0573,6.0229,4.7928,,7.5007,5.5658,5.7944,253.341,263.9746,205.4153,208.842,454.0911,197.2195,201.3174,0.2029,,1.9665,0.4019,-99.0,,-99.0,-99.0,24.9102,,24.9105,,0.7513,82.8766,,8.112,,1.9043E+00,,1.0000E-12,,13.5152,13.5160,0.1427,,98.047,80.827,,,,,,,,,,,,
CalCOFI,2007SR,057,59,2007_057d,24-Jul-2020 05:24:23,23-Jul-2020 21:24:23,33.81485,-121.84346,080.0 070.0,080.0,070.0,44.000,44.320,,13.3830,,13.3869,,13.3850,33.1916,,33.1918,33.1925,,33.1941,33.1930,5.8335,,6.0777,6.0431,4.8023,,7.5233,5.5872,5.8152,254.191,264.8619,206.0108,209.255,456.1701,197.9431,201.9770,0.1896,,1.8091,0.4113,-99.0,,-99.0,-99.0,24.9170,,24.9169,,0.7461,82.9827,,8.112,,1.9043E+00,,1.0000E-12,,13.3769,13.3808,0.1458,,98.082,80.749,,,,,,,,,,,,
CalCOFI,2007SR,057,59,2007_057d,24-Jul-2020 05:24:26,23-Jul-2020 21:24:26,33.81485,-121.84346,080.0 070.0,080.0,070.0,45.000,45.328,,13.3578,,13.3762,,13.3670,33.1910,,33.1912,33.1943,,33.1959,33.1936,5.8509,,6.0959,6.0612,4.7966,,7.5097,5.5743,5.8178,254.949,265.6532,206.5418,209.008,458.0241,197.5104,202.0261,0.1957,,1.8813,0.4078,-99.0,,-99.0,-99.0,24.9217,,24.9205,,0.7462,82.9823,,8.111,,1.9043E+00,,1.0000E-12,,13.3516,13.3700,0.1488,,98.323,80.638,,,,,,,,,,,,
CalCOFI,2007SR,057,59,2007_057d,24-Jul-2020 05:24:28,23-Jul-2020 21:24:28,33.81484,-121.84348,080.0 070.0,080.0,070.0,46.000,46.335,,13.4388,,13.4272,,13.4330,33.2300,,33.2302,33.2291,,33.2307,33.2305,5.8217,,6.0654,6.0309,4.7844,,7.4806,5.5469,5.7889,253.671,264.3191,205.6465,208.473,454.8983,196.5731,201.1098,0.1982,,1.9109,0.4060,-99.0,,-99.0,-99.0,24.9356,,24.9372,,0.7511,82.8805,,8.107,,1.9043E+00,,1.0000E-12,,13.4324,13.4209,0.1519,,98.018,80.534,,,,,,,,,,,,
CalCOFI,2007SR,057,59,2007_057d,24-Jul-2020 05:24:30,23-Jul-2020 21:24:30,33.81484,-121.84346,080.0 070.0,080.0,070.0,47.000,47.342,,13.5392,,13.5392,,13.5392,33.2766,,33.2768,33.2788,,33.2804,33.2786,5.7971,,6.0397,6.0053,4.7663,,7.4374,5.5062,5.7558,252.598,263.1990,204.8948,207.681,452.2738,195.1855,200.0402,0.1984,,1.9132,0.4058,-99.0,,-99.0,-99.0,24.9513,,24.9530,,0.7572,82.7533,,8.106,,1.9043E+00,,1.0000E-12,,13.5326,13.5327,0.1549,,97.834,80.439,,,,,,,,,,,,
CalCOFI,2007SR,057,59,2007_057d,24-Jul-2020 05:24:31,23-Jul-2020 21:24:31,33.81484,-121.84346,080.0 070.0,080.0,070.0,48.000,48.350,,13.5832,,13.5824,,13.5828,33.3072,,33.3074,33.3089,,33.3105,33.3090,5.7801,,6.0219,5.9876,4.7605,,7.4235,5.4932,5.7404,251.854,262.4223,204.3735,207.425,450.4541,194.7370,199.5553,0.2139,,2.0968,0.3891,-99.0,,-99.0,-99.0,24.9661,,24.9676,,0.7597,82.7011,,8.102,,1.9043E+00,,1.0000E-12,,13.5765,13.5757,0.1579,,97.654,80.427,,,,,,,,,,,,
CalCOFI,2007SR,057,59,2007_057d,24-Jul-2020 05:24:32,23-Jul-2020 21:24:32,33.81486,-121.84346,080.0 070.0,080.0,070.0,49.000,49.357,,13.6387,,13.6403,,13.6395,33.3296,,33.3298,33.3318,,33.3334,33.3316,5.7774,,6.0191,5.9848,4.7527,,7.4049,5.4757,5.7303,251.731,262.2939,204.2874,207.083,450.1533,194.1378,199.2126,0.2107,,2.0589,0.3933,-99.0,,-99.0,-99.0,24.9721,,24.9735,,0.7616,82.6634,,8.102,,1.9043E+00,,1.0000E-12,,13.6319,13.6335,0.1609,,97.731,80.401,,,,,,,,,,,,
CalCOFI,2007SR,057,59,2007_057d,24-Jul-2020 05:24:36,23-Jul-2020 21:24:36,33.81484,-121.84346,080.0 070.0,080.0,070.0,50.000,50.365,,13.6293,,13.6095,,13.6194,33.3257,,33.3259,33.3155,,33.3171,33.3215,5.7699,,6.0113,5.9770,4.7516,,7.4023,5.4732,5.7251,251.404,261.9525,204.0583,207.039,449.3535,194.0608,199.0596,0.2143,,2.1015,0.3886,-99.0,,-99.0,-99.0,24.9711,,24.9672,,0.7629,82.6349,,8.098,,1.9043E+00,,1.0000E-12,,13.6222,13.6025,0.1641,,97.583,80.325,50,13.462,,, ,,,,,,,
CalCOFI,2007SR,057,59,2007_057d,24-Jul-2020 05:24:38,23-Jul-2020 21:24:38,33.81484,-121.84346,080.0 070.0,080.0,070.0,51.000,51.372,,13.7055,,13.7093,,13.7074,33.3648,,33.3650,33.3698,,33.3714,33.3682,5.7006,,5.9389,5.9051,4.7366,,7.3665,5.4395,5.6723,248.382,258.7979,201.9411,206.378,441.9621,192.9027,197.4219,0.2017,,1.9523,0.4030,-99.0,,-99.0,-99.0,24.9857,,24.9889,,0.7698,82.4945,,8.097,,1.9043E+00,,1.0000E-12,,13.6984,13.7021,0.1671,,96.585,80.261,,,,,,,,,,,,